Hourly Data Report for October 09, 2014

All times are specified in Local Standard Time (LST). Add 1 hour to adjust for Daylight Saving Time where and when it is observed.

HALL BEACH A
NUNAVUT

68°46'33.000" N
81°14'33.000" W
9.10 m
2402354
71293
YUX

Download Data

Hourly Data (October 2014)
Hourly Data Report for October 9, 2014
Temp Definition
°C
Dew Point Temp Definition
°C
Rel Hum Definition
%
Wind Dir Definition
10's deg

Wind Spd Definition
km/h
Visibility Definition
km
Stn Press Definition
kPa
Hmdx Definition


Wind Chill Definition


Weather Definition


TIME
00:00 Legend Double Dagger -7.0 -7.5 96 34 22 16.1 102.27   -14 LegendNANA
01:00 Legend Double Dagger -7.2 -7.7 96 34 17 4.0 102.25   -14 Fog
02:00 Legend Double Dagger -7.5 -8.0 96 34 21 16.1 102.22   -15 LegendNANA
03:00 Legend Double Dagger -7.6 -8.1 96 34 21 16.1 102.18   -15 LegendNANA
04:00 Legend Double Dagger -8.0 -8.5 96 34 18 16.1 102.14   -15 LegendNANA
05:00 Legend Double Dagger -8.4 -9.2 94 33 15 16.1 102.11   -15 LegendNANA
06:00 Legend Double Dagger -10.4 -11.2 94 31 22 16.1 102.09   -19 LegendNANA
07:00 Legend Double Dagger -8.4 -9.1 95 32 17 16.1 102.05   -15 LegendNANA
08:00 Legend Double Dagger -9.1 -9.8 95 33 18 16.1 102.02   -16 LegendNANA
09:00 Legend Double Dagger -7.6 -8.1 96 35 22 16.1 101.97   -15 LegendNANA
10:00 Legend Double Dagger -7.3 -8.2 93 35 24 16.1 101.96   -15 LegendNANA
11:00 Legend Double Dagger -6.5 -7.7 91 36 26 16.1 101.91   -14 LegendNANA
12:00 Legend Double Dagger -6.4 -7.9 89 1 22 16.1 101.91   -14 LegendNANA
13:00 Legend Double Dagger -6.3 -8.0 88 36 24 16.1 101.88   -14 LegendNANA
14:00 Legend Double Dagger -6.2 -8.0 87 1 21 16.1 101.88   -13 LegendNANA
15:00 Legend Double Dagger -6.1 -7.9 87 36 24 16.1 101.86   -14 LegendNANA
16:00 Legend Double Dagger -5.3 -7.1 87 2 26 16.1 101.82   -13 LegendNANA
17:00 Legend Double Dagger -5.3 -7.1 87 1 22 16.1 101.81   -12 LegendNANA
18:00 Legend Double Dagger -5.3 -6.8 89 1 21 16.1 101.79   -12 LegendNANA
19:00 Legend Double Dagger -5.1 -7.1 86 36 26 16.1 101.73   -13 LegendNANA
20:00 Legend Double Dagger -5.5 -6.7 91 36 24 16.1 101.68   -13 LegendNANA
21:00 Legend Double Dagger -5.1 -6.6 89 1 35 16.1 101.61   -14 LegendNANA
22:00 Legend Double Dagger -4.7 -7.3 82 2 35 16.1 101.53   -13 LegendNANA
23:00 Legend Double Dagger -4.1 -6.1 86 2 34 16.1 101.48   -12 LegendNANA

Notes on Data Quality.

Legend

  • E = Estimated
  • M = Missing
  • NA = Not Available
  • ‡ = Partner data that is not subject to review by the National Climate Archives
Date modified: